Location: Zagreb
(45.8000°N, 16.0000°E)
Time: 00:25:35
(UTC+01:00)

Courier 1B Rocket - Visible Passes

Search period start: 21 February 2024 00:00
Search period end: 02 March 2024 00:00
Orbit: 920 x 1202 km, 28.2° (Epoch: 20 February)

Date Brightness Start Highest point End Pass type
(mag) Time Alt. Az. Time Alt. Az. Time Alt. Az.
21 Feb 7.1 04:13:18 10° S 04:14:33 11° SSE 04:16:02 10° SSE visible
21 Feb 7.0 06:03:02 10° SSW 06:06:40 16° S 06:10:25 10° SE visible
22 Feb 7.0 05:02:38 10° SSW 05:05:57 15° S 05:09:18 10° SE visible
23 Feb 7.0 04:05:05 13° S 04:05:14 13° S 04:07:57 10° SE visible
23 Feb 7.0 05:53:56 10° SW 05:57:24 15° S 06:00:55 10° SSE visible
24 Feb 6.8 04:54:07 12° SSW 04:56:40 15° S 05:00:08 10° SE visible
25 Feb 6.9 03:56:47 14° SSE 03:56:47 14° SSE 03:59:10 10° SE visible
25 Feb 6.9 05:45:08 10° SW 05:48:07 14° S 05:51:07 10° SSE visible
26 Feb 6.7 04:45:47 13° SSW 04:47:23 15° S 04:50:42 10° SSE visible
27 Feb 7.0 03:48:27 13° SSE 03:48:27 13° SSE 03:50:03 10° SSE visible
27 Feb 6.9 05:36:54 10° SSW 05:38:49 11° SSW 05:40:45 10° S visible
28 Feb 6.8 04:37:29 13° SSW 04:38:07 13° S 04:40:57 10° SSE visible
29 Feb 7.1 03:40:10 11° SSE 03:40:10 11° SSE 03:40:42 10° SSE visible
01 Mar 6.9 04:29:15 11° S 04:29:15 11° S 04:30:37 10° S visible
